www.pogodaiklimat.ru

Погода и климат >> Архив погоды >> Китай >> Шаньси >> Юйшэ


ПОГОДА в Юйшэ

  • Прогноз погоды в Юйшэ
  • Монитор погоды в Юйшэ

АРХИВ ПОГОДЫ в Юйшэ

Время (UTC), дата Ветер
(напр.,м/с)
 
Видим.   Явления Облачность Т
(С)
Тd
(С)
f
(%)
Тe
(С)
Тes
(С)
Комфортность P
(гПа)
Po
(гПа)
Тmin
(С)
Tmax
(С)
R
(мм)
R24
(мм)
S
(см)
09 10.09 С 1 30 км 9/9 600 м
[]
+22.5 +13.3 56 +25 +26 комфорт 1014.5 899.4
12 10.09 ЮВ 3 30 км 10/10 1000 м
[]
+19.8 +13.7 68 +22 +22 комфорт 1017.6 901.1
18 10.09 С 1 8000 м слаб. дождь ?/? +16.3 +16.1 99 +17 +17 1017.1 899.4 +23.4 12
21 10.09 С 1 8000 м дождь н/о +15.2 +15.0 99 +16 +16 1018.1 899.8
00 11.09 В 1 3900 м дождь 10/10 600 м
[]
+15.2 +15.0 99 +16 +16 1019.2 900.8 17
03 11.09 ЮВ 2 11 км дождь 10/10 600 м
[]
+15.1 +14.8 98 +15 +15 1019.0 900.6
06 11.09 штиль 0 29 км слаб. дождь 10/10 600 м
[]
+14.7 +14.2 97 +14 +14 1018.1 899.6 +14.6 14
09 11.09 ЮЗ 2 14 км слаб. дождь 10/10 600 м
[]
+14.6 +14.0 96 +14 +14 1017.6 899.1
12 11.09 З 1 10 км слаб. дождь 10/10 600 м
[]
+14.2 +14.0 99 +14 +14 1018.5 899.8 9
18 11.09 штиль 0 7000 м слаб. дождь ?/? +13.7 +13.5 99 +13 +13 1017.6 898.8 +16.3 2
21 11.09 С 1 22 км н/о +14.0 +13.8 99 +14 +14 1016.6 898.0
00 12.09 З 1 4900 м дымка 10/10 600 м
[]
+14.4 +14.2 99 +15 +15 1016.8 898.4 0.3
03 12.09 ЮЗ 1 12 км 10/10 600 м
[]
+15.1 +14.9 99 +16 +16 1017.1 898.9
06 12.09 З 1 15 км {дождь} 10/10 600 м
[]
+15.8 +15.6 99 +16 +16 1014.5 896.9 +13.7 0.1
09 12.09 ЮЗ 1 11 км 10/10
[]
+16.7 +16.4 98 +18 +18 1013.0 895.9
12 12.09 Ю 1 1700 м дымка ?/? +16.4 +16.2 99 +17 +17 1013.3 896.0
18 12.09 З 1 600 м дождь {морось, туман} ?/? +16.3 +16.1 99 +17 +17 1011.9 894.8 +16.7 2
21 12.09 С 1 4200 м слаб. дождь ?/? +16.3 +16.1 99 +17 +17 1011.9 894.8
00 13.09 С 2 30 км 10/10 1500 м
[]
+16.4 +16.2 99 +16 +16 1014.6 897.2 6
03 13.09 С 2 30 км слаб. дождь 10/10 600 м
[]
+16.6 +14.3 86 +17 +17 1016.9 899.3
06 13.09 С 2 30 км слаб. дождь 10/10 1500 м
[]
+17.5 +14.2 81 +18 +18 1016.3 899.1 +15.7 0.2
09 13.09 С 1 30 км слаб. дождь 10/10 1500 м
[]
+17.1 +14.6 85 +18 +18 1016.9 899.5
12 13.09 СВ 2 30 км {дождь} 10/10
[]
+15.7 +14.7 94 +16 +16 1018.6 900.5 0.2
18 13.09 В 1 18 км ?/? +14.1 +13.9 99 +14 +14 1019.4 900.5 +17.7
21 13.09 С 1 28 км н/о +13.6 +13.4 99 +14 +14 1019.4 900.3
00 14.09 С 1 21 км 10/10
[]
+14.2 +13.9 98 +14 +14 1020.2 901.3
03 14.09 С 2 30 км 9/9 1500 м
[]
+18.7 +12.2 66 +20 +21 1019.5 902.4
06 14.09 Ю 3 30 км 9/9 600 м
[]
+20.3 +9.5 50 +22 +23 комфорт 1018.1 901.8 +13.4
09 14.09 Ю 5 30 км 10/10
[]
+17.7 +11.3 66 +17 +17 1018.1 900.8
12 14.09 Ю 3 30 км в посл. час дождь 10/10 600 м
[]
+14.3 +12.9 91 +13 +13 1020.5 901.6 0.0
18 14.09 В 1 30 км ?/? +12.9 +12.3 96 +13 +13 1018.2 899.0 +21.0 0.3
21 14.09 СВ 1 25 км н/о +12.7 +12.2 97 +13 +13 1017.9 898.7
00 15.09 В 2 19 км 9/9
[]
+12.9 +12.7 99 +12 +12 1018.5 899.3 0.3
03 15.09 С 2 30 км 3/3
[]
+20.5 +8.8 47 +22 +31 комфорт 1016.2 900.1
06 15.09 С 1 30 км 9/9 600 м
[]
+21.9 +9.4 45 +23 +25 комфорт 1013.6 898.4 +12.0
09 15.09 СЗ 1 30 км 9/9 1500 м
[]
+21.0 +10.5 51 +24 +24 комфорт 1014.2 898.6
12 15.09 ЮВ 2 30 км 1/1
[]
+16.6 +12.9 79 +17 +17 1016.9 899.3
18 15.09 С 1 14 км ?/? +10.9 +10.4 97 +10 +10 1017.1 897.3 +22.7
21 15.09 С 1 11 км н/о +10.1 +9.8 98 +9 +9 1017.6 897.4
00 16.09 штиль 0 11 км 3/3
[]
+11.3 +11.1 99 +11 +13 1019.4 899.4
03 16.09 В 2 30 км 3/3 600 м
[]
+23.5 +4.0 28 +23 +32 комфорт 1017.0 902.0
06 16.09 Ю 2 30 км 6/6 600 м
[]
+24.8 +6.5 31 +25 +30 комфорт 1015.2 900.8 +9.6
09 16.09 Ю 5 30 км 9/9 600 м
[]
+22.2 +8.3 41 +23 +23 комфорт 1015.4 900.1
12 16.09 В 1 30 км 9/9 1500 м
[]
+19.0 +9.8 55 +21 +21 комфорт 1017.7 900.9
18 16.09 В 1 30 км ?/? +14.7 +13.1 90 +15 +15 1017.2 898.8 +25.9
21 16.09 С 1 30 км н/о +14.3 +13.0 92 +15 +15 1018.2 899.6
00 17.09 С 1 30 км 9/9
[]
+14.4 +13.4 94 +15 +15 1020.0 901.2
03 17.09 З 1 25 км 9/9
[]
+18.5 +13.4 72 +20 +22 1020.5 903.2

 

Местоположение метеостанции Юйшэ (Шаньси, Китай): широта 37.07 долгота 112.98 высота над уровнем моря 1042 м.

В архиве по умолчанию представлена погода в Юйшэ за последнюю неделю. Архивные данные за месяц целиком и за предыдущие месяцы, начиная с января 2011 года, Вы можете получить, выбрав интересующий диапазон дат из раскрывающегося списка и нажав кнопку "Ввод!".


*Определитесь, кто Вы:
робот инопланетянин человек

Внимание! Время в таблицах - всемирное. Для получения местного времени необходимо прибавить поправку, которая равна 8 ч.

Смотрите также архив погоды в соседних городах и на ближайших метеорологических станциях:

Погода в Тайюанье (Шаньси, Китай) (88 км)
Погода в Цзесю (Шаньси, Китай) (95 км)
Погода в Синтае (Хэбэй, Китай) (135 км)
Погода в Шицзячжуане (Хэбэй, Китай) (165 км)
Погода в Аньяне (Хэнань, Китай) (170 км)
Погода в Лиши (Шаньси, Китай) (173 км)
Погода в Яньчэне (Цзянсу, Китай) (184 км)
Погода в Юаньпине (Шаньси, Китай) (188 км)
Погода на Утайшане (Шаньси, Китай) (214 км)
Погода в Мэнцзине (Хэнань, Китай) (255 км)

Пояснения к столбцам:

Ветер - указаны скорость ветра в м/с - средняя за 10 мин, порывы в срок и между сроками (в фигурных скобках) и направление, откуда дует ветер: С - северный, СВ - северо-восточный, В - восточный, ЮВ - юго-восточный, Ю - южный, ЮЗ - юго-западный, З - западный, СЗ - северо-западный.
Видимость - горизонтальная дальность видимости в метрах или километрах. При видимости от 1 до 10 км при отсутствии осадков обычно наблюдается дымка, при ухудшении видимости до 1 км и менее - туман. В сухую погоду видимость может ухудшаться дымом, пылью или мглою.
Явления - указаны атмосферные явления, наблюдавшиеся в срок или в последний час перед сроком; фигурными скобками обозначены явления, наблюдавшиеся между сроками (за 1-3 часа до срока); квадратными скобками обозначены град или гололедные отложения с указанием их диаметра в мм.
Облачность - указаны через наклонную черту общая и нижняя облачность в баллах и высота нижней границы облаков в метрах; квадратными скобками обозначены формы облаков: Ci - перистые, Cs - перисто-слоистые, Cc - перисто-кучевые, Ac - высококучевые, As - высокослоистые, Sc - слоисто-кучевые, Ns - слоисто-дождевые, Cu - кучевые, Cb - кучево-дождевые. Подробнее классификацию облаков см. в Атласе облаков (PDF).
T - Температура воздуха - температура, измеренная на высоте 2 м над землей.
Td - Температура точки росы - температура, при понижении до которой содержащийся в воздухе водяной пар достигнет насыщения.
f - Относительная влажность воздуха - влажноcть воздуха, измеренная на высоте 2 м над землей.
Te - Эффективная температура - температура, которую ощущает одетый по сезону человек в тени. Характеристика душности погоды. При расчете учитывается влияние влажности воздуха и скорости ветра на теплоощущения человека.
Tes - Эффективная температура на солнце - температура, которую ощущает человек, с поправкой на солнечный нагрев. Характеристика знойности погоды. Зависит от высоты солнца над горизонтом, облачности и скорости ветра. Ночью, в пасмурную погоду, а также при ветре 12 м/с и более поправка равна нулю.
P - Атмосферное давление - приведенное к уровню моря атмосферное давление.
Po - Атмосферное давление - измеренное на уровне метеостанции атмосферное давление.
Tmin - Минимальная температура - минимум температуры воздуха на высоте 2 м над землей.
Tmax - Максимальная температура - максимум температуры воздуха на высоте 2 м над землей.
R - Количество осадков - Количество выпавших осадков за период времени, мм. При наведении курсора мыши на число - период времени, за который выпало указанное количество осадков.
R24 - Количество осадков - Количество выпавших осадков за 24 часа, мм.
S - Снежный покров - Высота снежного покрова, см. При наведении курсора мыши на число - состояние снежного покрова и степень покрытия местности в баллах.